Theta_e
325 325 323 322 322 321 321 320 319 318 317 317 316 317 320 323 324 327 330 331 331 329 326 327 328 331 331 331 331 331 329 328 328 329 329 330 330 330 330 328 327 327 323
321 320 319 319 317 317 317 317 317 317 317 316 316 317 315 314 313 314 319 326 331 331 329 327 326 327 328 330 331 330 330 330 327 327 328 329 329 330 330 329 328 327 324
311 312 312 311 311 310 310 311 313 314 314 314 313 312 313 314 315 315 314 313 317 324 328 329 329 328 329 330 329 328 329 329 329 327 327 327 327 330 330 329 328 328 325
309 309 310 310 310 310 311 311 312 313 312 312 312 312 311 310 310 310 314 315 315 316 317 320 322 322 322 322 322 324 326 327 328 327 327 326 327 328 329 330 329 329 326
309 309 310 310 311 311 311 311 311 311 311 311 311 310 310 310 309 310 311 311 314 315 316 317 316 314 314 316 318 320 323 325 326 327 327 326 327 326 327 330 330 329 328
308 308 309 309 310 310 310 310 310 310 310 309 309 309 309 311 311 312 313 313 311 313 315 315 314 314 314 314 315 316 323 322 323 324 325 326 326 325 327 328 328 329 328
306 306 306 306 307 308 308 308 308 308 309 308 309 309 310 312 311 313 313 312 314 314 313 316 315 315 314 317 318 320 319 320 321 322 322 324 325 325 325 326 327 328 329
305 305 305 305 306 306 305 305 305 306 307 307 308 308 310 310 310 310 311 309 310 312 314 313 312 313 315 317 317 317 316 316 315 320 321 321 322 323 324 325 326 326 326
305 304 304 304 304 304 304 304 304 304 305 305 307 308 310 311 308 308 310 309 309 310 310 311 310 310 310 311 313 314 313 315 315 318 319 319 319 319 321 323 324 324 325
304 304 304 303 303 303 303 303 303 303 303 304 305 305 305 306 309 310 308 307 309 308 307 310 309 308 308 309 310 312 313 315 315 316 318 318 318 318 319 319 319 321 323
304 304 303 303 302 302 302 302 302 303 303 302 303 303 304 304 305 306 307 307 306 306 305 306 307 307 307 309 310 309 310 314 315 315 316 317 317 318 318 319 320 319 320
303 303 302 302 302 302 301 301 301 301 302 302 302 302 302 302 302 302 303 302 302 304 306 305 306 307 308 309 309 309 312 312 313 313 315 315 315 314 314 315 315 316 317
302 301 301 301 301 301 300 300 300 300 300 300 301 301 301 301 301 301 302 302 302 304 306 306 306 307 307 309 308 307 308 309 309 309 311 312 311 311 311 310 312 313 315
301 300 300 300 300 300 299 299 299 299 299 300 300 300 300 300 300 301 302 302 305 305 305 305 305 307 307 308 307 307 307 308 308 308 307 307 307 307 307 307 308 311 312
300 299 299 299 299 299 298 299 299 299 299 300 300 300 300 300 300 301 302 302 303 305 305 305 306 307 308 306 306 307 306 307 308 308 307 307 306 306 306 306 306 306 307
299 298 298 298 298 298 298 298 299 299 299 299 300 300 300 300 300 301 302 302 303 304 306 305 306 305 305 306 306 306 306 306 306 306 306 305 303 303 302 304 304 304 304
298 298 297 297 298 298 298 299 299 299 299 299 299 300 300 301 301 302 303 303 304 304 305 305 306 306 306 306 306 305 304 303 303 303 304 304 303 302 301 301 302 302 302
297 297 297 297 297 297 298 298 299 299 299 300 300 299 300 301 302 302 303 304 304 305 305 306 306 306 305 305 304 304 303 302 301 300 301 300 300 299 299 299 299 299 299
297 297 296 296 296 297 297 297 298 298 298 299 299 299 300 300 300 300 300 300 301 301 302 302 304 305 304 303 302 300 300 299 298 298 298 298 297 297 296 296 296 296 296
297 296 296 296 296 296 296 297 297 297 298 298 298 299 299 298 298 298 298 297 298 298 299 299 301 302 301 299 298 298 297 296 296 295 295 295 296 295 295 294 294 295 295
296 296 296 295 295 295 295 296 296 297 297 298 298 297 297 297 297 297 296 295 296 296 297 298 298 297 295 295 294 295 295 294 293 294 293 293 293 293 293 292 291 291 292
296 295 295 295 294 294 294 295 295 296 296 297 296 296 296 296 296 296 295 294 294 296 295 295 294 293 292 292 293 293 293 293 293 292 292 290 291 289 288 289 290 290 289
295 295 295 294 294 293 294 295 294 295 295 295 296 296 296 295 295 295 295 294 294 293 293 292 291 291 291 292 293 293 292 289 287 288 290 287 286 285 286 288 289 289 290
295 295 295 294 294 293 293 294 294 293 294 294 295 295 295 294 294 294 293 292 291 290 291 290 288 287 287 289 292 292 288 287 286 285 287 288 285 286 286 285 287 289 290
294 294 294 293 293 293 292 293 292 292 293 293 294 292 293 293 293 293 292 291 290 288 286 286 286 286 286 287 287 287 287 289 286 285 285 285 285 285 285 284 284 285 285
294 293 293 293 292 292 291 293 292 291 291 291 290 290 289 290 291 291 290 288 286 285 285 285 285 286 286 286 286 286 285 285 284 285 284 284 284 284 286 285 284 284 284
Wind_Speed
9 9 8 7 5 4 4 3 1 0 1 2 2 3 2 4 4 4 6 6 6 6 6 5 4 3 2 3 4 5 7 9 11 13 14 15 17 21 20 18 14 12 10
7 7 5 4 3 2 1 1 1 1 2 2 3 2 2 2 3 6 7 5 5 7 7 7 6 5 4 5 6 7 8 9 10 12 13 14 17 21 23 20 16 14 13
7 6 5 3 2 1 1 1 1 1 2 3 4 5 6 6 6 7 7 7 8 8 6 5 9 11 9 7 7 8 9 10 11 11 12 14 15 20 24 24 19 16 15
6 5 5 4 4 3 3 1 1 0 1 3 5 6 7 7 7 9 10 9 8 7 7 9 10 10 11 11 11 9 9 9 12 13 12 14 15 18 22 24 22 20 19
6 5 5 5 4 4 4 4 3 3 4 6 8 9 8 8 8 6 7 10 11 8 7 6 7 8 9 10 10 9 8 8 10 10 13 13 14 16 21 23 25 24 23
6 5 6 5 4 4 5 4 5 6 6 10 9 6 6 3 6 7 6 4 6 10 8 6 7 8 9 9 10 9 7 7 7 8 10 10 13 15 17 21 22 25 25
6 5 6 6 6 6 8 7 5 6 7 12 7 6 6 7 9 11 15 15 12 6 2 1 3 4 4 5 5 5 6 5 6 8 9 10 10 9 11 16 19 23 26
9 9 9 10 9 8 8 9 10 6 6 12 5 2 3 2 5 3 5 14 13 9 7 6 7 7 5 4 3 4 7 8 9 9 9 11 12 11 11 12 12 14 21
9 9 10 9 9 9 10 11 11 10 6 8 10 5 1 2 7 3 3 8 10 9 9 7 8 9 8 7 7 8 10 9 7 4 5 7 9 10 13 13 12 13 14
7 7 7 7 7 7 7 8 9 10 9 7 4 7 4 1 2 4 3 8 7 11 14 8 8 9 9 9 10 10 9 8 7 7 7 8 10 11 12 13 14 15 14
6 5 5 5 5 6 6 6 6 6 5 5 5 5 4 4 2 3 5 7 14 12 13 12 11 11 11 10 9 9 8 8 7 6 8 10 11 11 11 12 12 14 16
5 4 4 4 4 4 4 5 5 4 3 2 1 1 2 2 3 3 3 10 13 12 14 12 11 11 8 4 7 8 6 5 5 5 7 9 9 11 11 12 13 15 15
6 5 4 4 4 4 4 4 4 4 4 2 2 4 6 7 8 9 7 9 5 7 8 11 13 11 7 3 5 9 7 6 6 6 6 7 8 9 11 13 14 15 16
5 3 5 4 4 4 5 5 4 4 5 5 4 7 7 9 11 12 8 7 6 8 9 10 16 10 4 1 12 11 10 10 9 8 7 7 8 11 12 13 13 13 14
4 6 5 4 5 6 6 7 7 7 7 6 6 7 8 9 10 12 14 14 10 4 5 6 5 8 2 14 13 11 9 10 10 10 9 7 8 10 8 11 13 14 14
4 8 6 5 5 7 8 7 7 8 8 8 6 8 10 10 10 12 12 14 16 14 4 8 9 15 19 14 11 8 10 12 10 8 5 2 5 7 12 12 12 14 15
4 5 6 6 7 7 8 9 9 10 12 11 11 12 11 10 10 14 16 15 16 16 12 14 15 14 13 10 9 8 7 6 5 4 4 2 4 8 13 13 14 13 15
4 5 5 6 7 8 9 8 8 9 10 11 12 11 12 10 10 12 10 12 14 16 15 12 10 10 13 10 7 6 4 2 1 5 6 8 9 10 10 13 13 15 15
7 7 6 6 7 9 9 7 8 10 10 10 10 9 9 8 8 8 8 8 10 11 12 12 10 8 8 5 3 0 2 2 4 3 2 3 6 9 10 12 13 13 14
3 4 5 7 7 9 8 8 9 9 9 8 7 6 5 3 3 6 7 8 8 8 9 9 8 4 2 2 2 3 3 5 4 3 5 5 5 5 7 10 11 11 13
3 2 3 4 6 9 9 10 9 8 7 6 5 3 2 2 3 6 7 8 9 6 5 4 1 3 5 5 5 4 2 3 10 8 7 10 10 9 11 11 12 13 13
1 2 3 5 7 10 9 8 8 7 5 3 2 2 4 5 4 4 3 9 13 8 6 3 7 6 7 4 5 5 3 1 1 9 5 10 11 12 12 13 12 12 14
2 3 4 6 7 9 8 7 9 6 3 2 2 3 3 4 3 4 4 7 11 14 14 13 13 9 8 9 5 6 7 9 6 6 4 6 9 11 11 12 13 13 14
3 5 5 5 7 8 8 9 10 5 2 2 3 3 1 2 3 5 5 9 12 15 15 15 15 13 11 6 8 7 8 9 8 13 4 2 7 6 8 9 10 13 14
2 4 6 6 6 7 9 8 11 4 1 1 3 4 1 3 4 4 6 10 11 12 12 12 13 12 13 12 7 4 4 1 2 5 13 3 7 3 5 9 9 9 9
2 5 7 6 6 6 7 6 9 5 2 6 8 6 5 5 5 6 8 10 12 10 10 11 12 13 14 14 14 13 11 6 2 2 12 4 7 6 0 3 6 9 9
Wind_Direction
135 128 129 127 128 127 134 132 130 184 283 289 285 267 230 233 256 273 266 267 249 244 238 238 233 238 271 300 293 306 295 278 275 265 255 247 236 231 229 235 244 252 260
157 155 142 148 156 153 135 138 203 241 275 287 290 295 284 276 273 280 281 267 257 245 239 234 229 234 259 283 295 292 287 298 285 277 269 259 246 237 233 234 240 248 254
144 153 147 151 143 161 130 221 242 257 282 295 306 306 316 310 285 278 281 282 268 260 266 267 257 256 259 279 301 309 304 280 290 285 279 266 262 253 243 239 241 249 252
130 132 127 123 97 81 87 119 113 136 339 337 330 328 331 315 298 279 270 270 274 269 260 262 270 275 275 273 283 298 299 292 281 284 285 277 269 261 255 248 248 254 255
102 111 108 98 91 79 75 68 57 38 9 352 340 329 323 307 304 295 285 262 257 259 264 267 276 280 279 280 280 290 297 299 288 292 275 284 277 271 263 253 252 255 258
87 87 91 96 88 73 68 55 47 34 23 354 340 341 344 10 75 67 35 1 269 250 253 271 286 291 286 274 272 274 289 299 308 299 305 291 282 278 271 268 262 257 254
79 81 79 78 73 68 58 48 50 42 28 12 13 6 61 109 59 59 72 59 53 55 75 79 11 337 278 281 269 253 255 297 314 317 304 299 298 299 289 273 268 263 255
79 77 76 75 73 71 65 53 50 51 38 27 23 8 13 42 36 67 65 44 46 53 60 46 32 20 358 301 280 273 291 290 295 294 301 301 297 298 296 295 297 288 266
82 74 72 71 72 69 64 57 52 53 44 43 54 44 359 11 330 338 7 28 28 37 14 347 347 347 338 319 299 283 276 281 290 323 321 319 314 301 292 298 302 303 304
90 80 68 60 59 60 59 55 50 47 44 33 39 36 41 352 329 314 333 330 348 338 341 343 348 350 337 321 305 294 287 272 266 287 311 314 314 313 309 299 293 299 305
113 95 76 66 65 69 67 61 53 46 49 56 46 21 13 351 7 277 299 322 328 326 332 314 316 332 331 332 320 297 279 269 272 296 310 310 306 313 315 317 313 304 303
128 110 76 61 64 68 60 40 33 42 54 54 48 46 44 334 316 297 308 312 304 309 316 314 313 311 309 319 2 1 333 286 277 305 324 308 321 317 310 317 317 315 308
125 103 70 40 27 18 19 39 37 29 18 12 333 296 281 285 280 278 270 285 283 310 309 319 322 303 300 265 347 345 338 323 312 308 333 333 329 329 330 326 325 318 313
108 50 20 9 14 2 0 355 9 11 358 346 342 332 309 289 280 273 259 275 289 288 303 314 310 296 275 343 333 321 316 309 307 310 312 325 322 322 325 325 330 330 319
70 11 354 24 20 359 353 351 348 349 346 339 330 324 310 301 285 281 280 275 268 292 301 300 291 296 315 316 316 306 308 304 300 297 306 324 336 342 355 336 341 339 339
35 27 19 29 16 5 349 355 345 337 330 327 317 311 310 305 292 286 286 288 280 265 271 280 281 287 298 302 306 306 307 300 300 311 333 17 14 17 5 359 357 2 359
33 18 21 14 11 3 2 4 4 358 348 338 325 315 307 302 290 293 294 288 273 265 262 275 280 295 303 308 300 300 318 321 320 28 25 65 343 345 355 5 0 11 12
39 30 20 26 16 5 1 4 2 334 332 327 323 315 308 308 299 305 302 288 279 277 262 267 280 281 308 300 302 293 293 301 30 90 86 64 54 38 29 43 28 35 44
59 45 36 28 12 1 352 351 340 330 330 324 323 316 311 311 309 308 312 304 299 292 288 286 291 286 300 295 288 217 48 61 89 105 112 57 55 49 37 32 21 33 40
77 68 46 20 360 348 347 348 339 329 328 331 327 321 321 335 347 349 346 335 319 317 315 291 293 289 312 344 44 70 80 61 77 83 54 34 20 19 30 35 37 38 35
232 38 29 11 1 350 356 346 325 327 328 350 348 334 338 100 55 18 22 355 352 342 318 311 13 61 37 26 21 2 53 125 68 58 52 44 43 54 56 50 39 37 35
23 22 1 353 5 358 345 331 326 342 356 3 13 33 49 61 57 49 35 47 40 37 42 86 72 68 43 30 28 33 50 116 77 26 69 54 60 57 50 46 40 44 45
29 10 357 359 356 349 346 332 350 359 0 13 53 59 60 55 69 65 79 75 71 68 74 85 79 61 45 38 56 65 78 86 75 30 83 54 55 58 57 54 35 36 35
16 4 357 340 325 338 347 347 350 339 360 47 66 56 70 82 97 122 104 86 84 74 71 74 73 61 49 57 67 85 100 101 72 40 63 85 28 45 42 40 53 49 50
9 347 338 327 311 330 357 349 339 345 338 74 106 68 110 138 151 149 127 110 96 85 78 77 76 73 68 67 73 58 47 74 69 36 28 48 8 29 57 47 48 43 42
2 340 318 318 308 328 359 343 353 11 82 115 90 83 81 117 133 138 129 120 106 95 93 88 80 75 68 66 63 59 56 63 64 56 12 18 11 14 277 28 39 37 26